Home > Weather > Mason > Past weeks

Flag for USA Past Weather in Mason, Ohio, USA — Yesterday and Last 2 Weeks

Now
70 °F

Clear.


Feels Like: 68 °F
Forecast: 67 / 82 °F
Wind: No wind

Location: Butler County Regional Airport

Current Time: May 28, 2016 at 7:54:07 AM

Latest Report: May 28, 2016 at 6:53 AM


Visibility: 9 mi

Pressure: 30.04 "Hg

Humidity: 87%

Dew Point: 66 °F

Location of MasonLocation

Past Weather in Mason — Graph

°F

Mason Temperature Yesterday

Maximum temperature yesterday: 87 °F (at 3:53 PM)
Minimum temperature yesterday: 63 °F (at 4:53 AM)
Average temperature yesterday: 75 °F

High & Low Weather Summary for the Past Weeks

 TemperatureHumidityPressure
High87 °F (May 27, 3:53 PM)100% (May 22, 3:53 AM)30.30 "Hg (May 22, 3:53 AM)
Low33 °F (May 16, 3:53 AM)25% (May 21, 3:53 PM)29.76 "Hg (May 14, 4:53 AM)
Average61 °F66%30.08 "Hg
* Reported May 13 5:53 AM — May 28 5:53 AM, Mason, Weather by CustomWeather, © 2016

Note: Actual official high and low records may vary slightly from our data, if they occured in-between our weather recording intervals... More about our weather records

Advertising

Mason Weather History for the Previous 24 Hours

Scroll right to see more
 ConditionsComfort  
Time TempWeatherWind HumidityBarometerVisibility
5:53 AM
Sat, May 28
68 °FClear.No wind90%30.03 "Hg10 mi
4:53 AM66 °FClear.No wind93%30.01 "Hg9 mi
3:53 AM68 °FClear.No wind90%30.00 "Hg10 mi
2:53 AM73 °FClear.No wind79%29.99 "Hg10 mi
1:53 AM72 °FClear.3 mph78%30.00 "Hg10 mi
12:53 AM71 °FClear.3 mph84%30.01 "Hg10 mi
11:53 PM
Fri, May 27
71 °FClear.No wind84%30.01 "Hg10 mi
10:53 PM70 °FClear.No wind84%30.01 "Hg10 mi
9:53 PM73 °FSunny.No wind79%29.98 "Hg10 mi
8:53 PM81 °FSunny.3 mph56%29.96 "Hg10 mi
7:53 PM84 °FSunny.6 mph49%29.96 "Hg10 mi
6:53 PM85 °FSunny.6 mph48%29.95 "Hg10 mi
5:53 PM86 °FPassing clouds.6 mph46%29.96 "Hg10 mi
4:53 PM87 °FPassing clouds.7 mph46%29.97 "Hg10 mi
3:53 PM87 °FSunny.10 mph45%29.98 "Hg10 mi
2:53 PM86 °FPassing clouds.6 mph49%30.00 "Hg10 mi
1:53 PM86 °FPassing clouds.6 mph48%30.01 "Hg10 mi
12:53 PM85 °FSunny.7 mph46%30.02 "Hg10 mi
11:53 AM83 °FSunny.5 mph57%30.03 "Hg10 mi
10:53 AM79 °FSunny.5 mph62%30.02 "Hg10 mi
9:53 AM76 °FSunny.No wind72%30.03 "Hg10 mi
8:53 AM72 °FSunny.5 mph76%30.03 "Hg10 mi
7:53 AM66 °FSunny.3 mph90%30.04 "Hg9 mi
Weather by CustomWeather, © 2016

See weather overviewHow to use our weather pages